GW6608 Weather Reports


time (UTC)temp
F
wind
direction
speed
knots
gust
knots
rain 1hr
in
rain 24hr
in
rain mn
in
humidity
%
barometer
mb
20260508030219 49 137 0.0 0.9 0.00 0.01 0.01 48 1011.3
20260508025715 50 137 0.0 0.0 0.00 0.01 0.01 48 1011.5
20260508025213 50 137 0.0 0.0 0.00 0.01 0.01 47 1011.5
20260508024708 50 137 0.0 0.0 0.00 0.01 0.01 47 1011.5
20260508024206 50 136 0.0 0.0 0.00 0.01 0.01 46 1011.4
20260508023702 51 135 0.0 0.0 0.00 0.01 0.01 45 1011.4
20260508023200 51 135 0.0 0.0 0.00 0.01 0.01 44 1011.5
20260508022655 51 128 0.0 0.0 0.00 0.01 0.01 44 1011.3
20260508022152 51 138 0.0 0.0 0.00 0.01 0.01 43 1011.3
20260508021648 51 114 0.0 0.0 0.00 0.01 0.01 44 1011.0
20260508021144 51 141 0.0 0.0 0.00 0.01 0.01 43 1011.0
20260508020642 52 129 0.0 0.9 0.00 0.01 0.01 44 1010.9
20260508020139 52 130 0.0 0.0 0.00 0.01 0.01 43 1011.0
20260508015636 52 126 0.0 0.0 0.00 0.01 0.01 42 1010.8
20260508015133 52 94 0.9 0.9 0.00 0.01 0.01 42 1010.7
20260508014630 52 112 0.0 0.0 0.00 0.01 0.01 43 1010.7
20260508014126 52 129 0.0 0.0 0.00 0.01 0.01 45 1010.8
20260508013622 53 129 0.0 0.0 0.00 0.01 0.01 44 1010.5
20260508013119 53 129 0.0 0.0 0.00 0.01 0.01 44 1010.5
20260508012617 53 128 0.0 0.0 0.00 0.01 0.01 43 1010.5
20260508012114 53 137 0.0 0.0 0.00 0.01 0.01 43 1010.3
20260508011612 53 140 0.0 0.0 0.00 0.01 0.01 43 1010.1
20260508011109 54 143 0.0 0.0 0.00 0.01 0.01 42 1010.3
20260508010606 54 123 0.0 0.0 0.00 0.01 0.01 42 1010.3
20260508010104 54 97 0.0 1.7 0.00 0.01 0.01 41 1010.1
20260508005600 54 172 0.0 0.0 0.00 0.01 0.01 41 1009.9
20260508005056 54 173 0.0 0.0 0.00 0.01 0.01 41 1009.8
20260508004552 54 173 0.0 0.0 0.00 0.01 0.01 41 1009.9
20260508004049 54 173 0.0 0.0 0.00 0.01 0.01 41 1010.0
20260508003546 54 173 0.0 0.0 0.00 0.01 0.01 41 1009.8
20260508003044 54 173 0.0 0.0 0.00 0.01 0.01 41 1009.8
20260508002539 54 173 0.0 0.0 0.00 0.01 0.01 41 1009.6
20260508002037 55 173 0.0 0.0 0.00 0.01 0.01 40 1009.5
20260508001533 55 173 0.0 0.0 0.00 0.01 0.01 39 1009.4
20260508001029 55 173 0.0 0.0 0.00 0.01 0.01 38 1009.3
20260508000525 56 173 0.0 0.0 0.00 0.01 0.01 37 1009.4
20260508000023 56 173 0.0 0.0 0.00 0.01 0.01 37 1009.2
20260507235519 57 167 0.0 0.0 0.00 0.01 0.01 36 1009.3
20260507235017 57 161 0.0 1.7 0.00 0.01 0.01 35 1009.1
20260507234513 57 162 0.0 0.0 0.00 0.01 0.01 35 1009.3
20260507234009 57 150 0.9 1.7 0.00 0.01 0.01 35 1009.1
20260507233506 57 154 0.0 0.9 0.00 0.01 0.01 34 1009.1
20260507233005 58 160 0.0 0.0 0.00 0.01 0.01 35 1009.2
20260507232501 58 151 0.0 1.7 0.00 0.01 0.01 35 1009.2
20260507231958 58 155 0.0 1.7 0.00 0.01 0.01 34 1009.0
20260507231454 59 146 0.0 1.7 0.00 0.01 0.01 34 1009.0
20260507230952 59 154 1.7 1.7 0.00 0.01 0.01 34 1008.9
20260507230449 59 173 0.0 0.9 0.00 0.01 0.01 34 1008.8
20260507225944 59 124 0.0 1.7 0.00 0.01 0.01 34 1008.7
20260507225440 59 145 0.0 1.7 0.00 0.01 0.01 34 1008.8
20260507224936 59 145 0.0 1.7 0.00 0.01 0.01 33 1008.7
20260507224432 59 152 0.0 2.6 0.00 0.01 0.01 34 1008.6
20260507223929 60 165 0.0 1.7 0.00 0.01 0.01 34 1008.6
20260507223425 60 153 0.0 1.7 0.00 0.01 0.01 34 1008.6
20260507222922 60 119 0.9 6.1 0.00 0.01 0.01 33 1008.5
20260507222419 60 166 1.7 2.6 0.00 0.01 0.01 33 1008.6
20260507221916 60 139 0.9 2.6 0.00 0.01 0.01 33 1008.4
20260507221412 61 131 0.9 3.5 0.00 0.01 0.01 32 1008.4
20260507220908 61 148 0.9 3.5 0.00 0.01 0.01 32 1008.3
20260507220407 61 197 1.7 2.6 0.00 0.01 0.01 33 1008.2
20260507215903 61 231 2.6 5.2 0.00 0.01 0.01 31 1008.3
20260507215359 62 195 1.7 5.2 0.00 0.01 0.01 31 1008.2
20260507214857 62 111 0.9 1.7 0.00 0.01 0.01 33 1008.4
20260507214354 61 169 0.9 3.5 0.00 0.01 0.01 31 1008.3
20260507213850 61 187 0.9 1.7 0.00 0.01 0.01 32 1008.2
20260507213346 62 187 1.7 2.6 0.00 0.01 0.01 32 1008.2
20260507212843 62 234 3.5 3.5 0.00 0.01 0.01 32 1008.1
20260507212339 62 163 0.9 5.2 0.00 0.01 0.01 31 1008.2
20260507211836 63 228 3.5 5.2 0.00 0.01 0.01 32 1008.2
20260507211333 62 89 0.0 1.7 0.00 0.01 0.01 31 1008.2
20260507210829 62 83 1.7 2.6 0.00 0.01 0.01 30 1008.1
20260507210327 62 145 0.9 2.6 0.00 0.01 0.01 34 1008.2
20260507205823 63 159 0.9 6.1 0.00 0.01 0.01 31 1008.1
20260507205320 63 120 1.7 1.7 0.00 0.01 0.01 32 1008.0
20260507204816 63 216 1.7 5.2 0.00 0.01 0.01 30 1007.7
20260507204314 62 105 0.9 1.7 0.00 0.01 0.01 34 1008.0
20260507203812 62 104 1.7 3.5 0.00 0.01 0.01 33 1008.0
20260507203309 61 81 0.9 1.7 0.00 0.01 0.01 34 1008.0
20260507202805 62 129 0.9 1.7 0.00 0.01 0.01 35 1007.9
20260507202301 63 99 0.9 1.7 0.00 0.01 0.01 34 1008.0
20260507201756 63 48 0.9 1.7 0.00 0.01 0.01 34 1007.9
20260507201253 62 136 0.0 1.7 0.00 0.01 0.01 36 1008.0
20260507200749 62 107 1.7 5.2 0.00 0.01 0.01 35 1008.1
20260507200245 63 129 1.7 1.7 0.00 0.01 0.01 34 1008.0
20260507195741 63 157 0.9 1.7 0.00 0.01 0.01 33 1008.2
20260507195239 63 101 0.0 1.7 0.00 0.01 0.01 34 1008.1
20260507194736 64 228 0.9 1.7 0.00 0.01 0.01 34 1008.2
20260507194232 64 108 2.6 3.5 0.00 0.01 0.01 32 1008.1
20260507193729 64 181 0.9 7.0 0.00 0.01 0.01 32 1008.2
20260507193226 63 99 0.9 1.7 0.00 0.01 0.01 34 1008.2
20260507192722 63 131 0.9 1.7 0.00 0.01 0.01 33 1008.1
20260507192219 64 128 1.7 3.5 0.00 0.01 0.01 31 1008.3
20260507191714 63 199 1.7 2.6 0.00 0.01 0.01 33 1008.4
20260507191212 65 150 2.6 3.5 0.00 0.01 0.01 31 1008.4
20260507190709 66 161 1.7 2.6 0.00 0.01 0.01 31 1008.1
20260507190207 65 204 1.7 3.5 0.00 0.01 0.01 32 1008.1
20260507185705 66 190 1.7 2.6 0.00 0.01 0.01 32 1008.0
20260507185202 66 96 0.9 2.6 0.00 0.01 0.01 32 1008.1
20260507184659 65 92 0.9 1.7 0.00 0.01 0.01 34 1008.2
20260507184157 66 152 1.7 2.6 0.00 0.01 0.01 33 1008.3
20260507183653 65 155 1.7 3.5 0.00 0.01 0.01 36 1008.4
20260507183150 64 219 1.7 2.6 0.00 0.01 0.01 35 1008.5
20260507182648 63 81 0.9 3.5 0.00 0.01 0.01 37 1008.4
20260507182143 66 115 1.7 3.5 0.00 0.01 0.01 37 1008.4
20260507181640 66 72 0.9 1.7 0.00 0.01 0.01 36 1008.4
20260507181136 64 151 0.9 2.6 0.00 0.01 0.01 39 1008.3
20260507180632 64 175 0.9 3.5 0.00 0.01 0.01 43 1008.5
20260507180130 65 223 2.6 3.5 0.00 0.01 0.01 40 1008.5
20260507175625 64 71 1.7 2.6 0.00 0.01 0.01 41 1008.6
20260507175123 64 132 0.9 1.7 0.00 0.01 0.01 39 1008.6
20260507174620 64 178 2.6 7.0 0.00 0.01 0.01 39 1008.8
20260507174118 64 120 1.7 6.1 0.00 0.01 0.01 44 1008.7
20260507173615 63 117 4.3 7.8 0.00 0.01 0.01 41 1008.7
20260507173112 64 219 1.7 5.2 0.00 0.01 0.01 40 1008.6
20260507172607 64 175 1.7 3.5 0.00 0.01 0.01 38 1008.8
20260507172106 64 215 1.7 2.6 0.00 0.01 0.01 39 1008.9
20260507171600 64 207 2.6 2.6 0.00 0.01 0.01 41 1008.9
20260507171057 63 83 1.7 1.7 0.00 0.01 0.01 43 1008.9
20260507170554 63 221 1.7 2.6 0.00 0.01 0.01 43 1008.9
20260507170051 62 123 0.9 2.6 0.00 0.01 0.01 48 1008.9
20260507165547 63 178 0.0 2.6 0.00 0.01 0.01 45 1009.0
20260507165044 62 81 0.9 5.2 0.00 0.01 0.01 45 1009.2
20260507164540 63 81 0.9 2.6 0.00 0.01 0.01 43 1009.0
20260507164037 62 171 1.7 2.6 0.00 0.01 0.01 45 1009.1
20260507163534 62 138 1.7 1.7 0.00 0.01 0.01 46 1009.2
20260507163033 62 121 0.9 3.5 0.00 0.01 0.01 46 1009.1
20260507162532 63 189 2.6 3.5 0.00 0.01 0.01 45 1009.3
20260507162030 64 115 1.7 1.7 0.00 0.01 0.01 44 1009.0
20260507161526 64 161 1.7 5.2 0.00 0.01 0.01 44 1009.3
20260507161023 63 101 0.9 3.5 0.00 0.01 0.01 42 1009.4
20260507160519 64 115 0.9 5.2 0.00 0.01 0.01 40 1009.4
20260507160015 64 208 0.9 5.2 0.00 0.01 0.01 43 1009.6
20260507155510 63 178 1.7 5.2 0.00 0.01 0.01 43 1009.5
20260507155008 63 203 2.6 2.6 0.00 0.01 0.01 45 1009.6
20260507154504 63 227 3.5 5.2 0.00 0.01 0.01 43 1009.6
20260507154002 62 110 0.9 2.6 0.00 0.01 0.01 47 1009.9
20260507153458 58 93 0.0 2.6 0.00 0.01 0.01 60 1009.6
20260507152955 56 160 0.9 2.6 0.00 0.01 0.01 69 1009.8
20260507152451 57 177 0.9 1.7 0.00 0.01 0.01 66 1009.9
20260507151947 58 163 1.7 3.5 0.00 0.01 0.01 62 1009.7
20260507151443 57 152 0.0 0.9 0.00 0.01 0.01 66 1009.9
20260507150940 57 185 0.0 0.9 0.00 0.01 0.01 63 1009.9
20260507150437 58 155 0.9 3.5 0.00 0.01 0.01 61 1010.0
20260507145934 59 122 1.7 2.6 0.00 0.01 0.01 63 1009.9
20260507145429 61 152 0.0 0.9 0.00 0.01 0.01 59 1010.0
20260507144926 61 238 1.7 6.1 0.00 0.01 0.01 50 1009.7
20260507144423 60 82 0.0 2.6 0.00 0.01 0.01 53 1010.1
20260507143921 59 149 0.0 1.7 0.00 0.01 0.01 55 1009.7
20260507143418 60 82 0.9 1.7 0.00 0.01 0.01 59 1010.1
20260507142914 59 91 0.0 0.9 0.00 0.01 0.01 52 1009.9
20260507142410 60 65 1.7 1.7 0.00 0.01 0.01 52 1010.0
20260507141907 60 167 0.0 0.9 0.00 0.01 0.01 53 1009.8
20260507141403 59 114 0.0 2.6 0.00 0.01 0.01 56 1010.0
20260507140900 59 228 2.6 2.6 0.00 0.01 0.01 57 1010.2
20260507140357 58 177 0.0 0.0 0.00 0.01 0.01 59 1010.2
20260507135855 58 41 0.9 0.9 0.00 0.01 0.01 58 1010.3
20260507135351 58 195 1.7 1.7 0.00 0.01 0.01 61 1010.3
20260507134849 57 123 0.0 0.9 0.00 0.01 0.01 59 1010.5
20260507134345 57 99 0.0 1.7 0.00 0.01 0.01 61 1010.4
20260507133841 57 83 0.0 1.7 0.00 0.01 0.01 61 1010.5
20260507133336 57 153 0.0 0.9 0.00 0.01 0.01 62 1010.4
20260507132835 57 194 0.9 1.7 0.00 0.01 0.01 62 1010.5
20260507132331 56 89 0.0 0.9 0.00 0.01 0.01 64 1010.6
20260507131829 57 156 0.0 0.9 0.00 0.01 0.01 65 1010.6
20260507131325 56 137 0.0 0.0 0.00 0.01 0.01 67 1010.7
20260507130822 56 144 0.0 0.0 0.00 0.01 0.01 68 1010.6
20260507130319 56 187 0.9 1.7 0.00 0.01 0.01 68 1010.8
20260507125818 56 203 0.9 1.7 0.00 0.01 0.01 68 1010.5
20260507125315 56 104 0.0 0.9 0.00 0.01 0.01 70 1010.6
20260507124813 55 152 0.0 0.9 0.00 0.01 0.01 72 1010.6
20260507124309 55 179 1.7 1.7 0.00 0.01 0.01 72 1010.6
20260507123807 55 117 0.0 0.9 0.00 0.01 0.01 71 1010.6
20260507123304 55 167 0.9 0.9 0.00 0.01 0.01 72 1010.9
20260507122800 55 94 0.0 0.9 0.00 0.01 0.01 75 1010.9
20260507122255 54 155 0.0 0.0 0.00 0.01 0.01 74 1010.7
20260507121752 53 147 0.0 1.7 0.00 0.01 0.01 77 1010.9
20260507121248 53 102 0.9 1.7 0.00 0.01 0.01 78 1010.7
20260507120744 53 179 0.0 1.7 0.00 0.01 0.01 79 1010.9
20260507120241 53 111 0.0 0.0 0.00 0.01 0.01 81 1010.7
20260507115737 53 113 0.0 0.0 0.00 0.01 0.01 84 1010.8
20260507115233 52 138 0.0 1.7 0.00 0.01 0.01 84 1010.7
20260507114729 50 131 0.0 0.0 0.00 0.01 0.01 88 1010.7
20260507114226 50 168 0.0 0.9 0.00 0.01 0.01 87 1010.8
20260507113724 50 125 0.0 0.0 0.00 0.01 0.01 87 1010.6
20260507113220 50 116 0.0 0.0 0.00 0.01 0.01 86 1010.5
20260507112718 50 120 0.0 0.0 0.00 0.01 0.01 86 1010.4
20260507112215 50 149 0.0 0.0 0.00 0.01 0.01 85 1010.8
20260507111712 50 149 0.0 0.0 0.00 0.01 0.01 87 1010.6
20260507111209 49 149 0.0 0.0 0.00 0.01 0.01 87 1010.6
20260507110705 49 149 0.0 0.0 0.00 0.01 0.01 87 1010.8
20260507110202 49 149 0.0 0.0 0.00 0.01 0.01 87 1010.9
20260507105659 49 149 0.0 0.0 0.00 0.01 0.01 88 1010.8
20260507105154 49 149 0.0 0.0 0.00 0.01 0.01 88 1010.9
20260507104652 48 149 0.0 0.0 0.00 0.01 0.01 89 1010.7
20260507104148 48 149 0.0 0.0 0.00 0.01 0.01 89 1010.8
20260507103644 48 149 0.0 0.0 0.00 0.01 0.01 90 1010.7
20260507103141 48 149 0.0 0.0 0.00 0.01 0.01 89 1010.9
20260507102637 48 149 0.0 0.0 0.00 0.01 0.01 89 1011.4
20260507102134 48 149 0.0 0.0 0.00 0.01 0.01 89 1010.8
20260507101630 48 149 0.0 0.0 0.00 0.01 0.01 89 1011.0
20260507101126 48 149 0.0 0.0 0.00 0.01 0.01 89 1010.9
20260507100623 48 149 0.0 0.0 0.00 0.01 0.01 89 1010.9
20260507100121 48 149 0.0 0.0 0.00 0.01 0.01 88 1010.6
20260507095619 48 149 0.0 0.0 0.00 0.01 0.01 88 1010.7
20260507095115 48 149 0.0 0.0 0.00 0.01 0.01 88 1010.7
20260507094611 48 149 0.0 0.0 0.00 0.01 0.01 89 1010.8
20260507094109 49 149 0.0 0.0 0.00 0.01 0.01 88 1010.7
20260507093606 49 109 0.0 0.0 0.00 0.01 0.01 88 1010.2
20260507093105 49 111 0.0 0.0 0.00 0.01 0.01 88 1010.2
20260507092601 49 144 0.0 0.0 0.00 0.01 0.01 88 1010.6
20260507092057 49 124 0.0 0.0 0.00 0.01 0.01 87 1010.6
20260507091554 49 135 0.0 0.9 0.00 0.01 0.01 88 1010.2
20260507091050 49 116 0.0 0.0 0.00 0.01 0.01 87 1010.2
20260507090546 49 113 0.0 0.0 0.00 0.01 0.01 88 1010.2
20260507090043 49 128 0.0 0.0 0.00 0.01 0.01 87 1010.2
20260507085540 50 105 0.0 0.0 0.00 0.01 0.01 88 1010.0
20260507085037 50 97 0.9 0.9 0.00 0.01 0.01 89 1010.1
20260507084534 50 192 0.0 1.7 0.00 0.01 0.01 90 1010.1
20260507084031 50 108 0.0 1.7 0.00 0.01 0.01 92 1010.1
20260507083527 50 121 0.0 0.9 0.00 0.01 0.01 94 1010.2
20260507083024 50 145 0.0 1.7 0.00 0.01 0.01 95 1010.5
20260507082520 50 128 0.0 0.0 0.00 0.01 0.01 95 1010.4
20260507082016 50 139 0.0 0.9 0.00 0.01 0.01 95 1010.3
20260507081513 50 118 0.0 0.0 0.00 0.01 0.01 95 1009.9
20260507081010 51 118 0.0 0.0 0.00 0.01 0.01 95 1010.0
20260507080506 51 118 0.0 0.0 0.00 0.01 0.01 95 1009.9
20260507080001 51 118 0.0 0.0 0.00 0.01 0.01 95 1010.0
20260507075458 51 118 0.0 0.0 0.00 0.01 0.01 95 1009.5
20260507074954 51 118 0.0 0.0 0.00 0.01 0.01 95 1009.5
20260507074451 51 118 0.0 0.0 0.00 0.01 0.01 95 1009.7
20260507073950 51 146 0.0 0.0 0.00 0.01 0.01 95 1009.7
20260507073445 51 144 0.0 0.0 0.00 0.01 0.01 96 1010.0
20260507072942 51 132 0.0 0.0 0.00 0.01 0.01 96 1009.9
20260507072440 51 178 0.0 0.0 0.00 0.01 0.01 96 1009.7
20260507071937 51 169 0.0 0.0 0.00 0.01 0.01 96 1009.7
20260507071434 51 169 0.0 0.0 0.00 0.01 0.01 96 1009.5
20260507070930 51 169 0.0 0.0 0.00 0.01 0.01 96 1009.3
20260507070428 51 169 0.0 0.0 0.00 0.01 0.01 96 1009.4
20260507065924 52 169 0.0 0.0 0.00 0.01 0.01 96 1009.3
20260507065421 52 169 0.0 0.0 0.00 0.01 0.01 96 1009.4
20260507064918 52 169 0.0 0.0 0.00 0.01 0.01 96 1009.3
20260507064417 52 168 0.0 0.0 0.00 0.01 0.01 96 1009.2
20260507063914 52 169 0.0 0.0 0.00 0.01 0.01 96 1009.5
20260507063411 52 169 0.0 0.0 0.00 0.01 0.01 96 1009.4
20260507062908 52 169 0.0 0.0 0.00 0.01 0.01 96 1009.2
20260507062405 52 169 0.0 0.0 0.00 0.01 0.01 96 1009.6
20260507061902 52 169 0.0 0.0 0.00 0.01 0.01 96 1009.2
20260507061400 52 169 0.0 0.0 0.00 0.01 0.01 96 1008.9
20260507060859 53 169 0.0 0.0 0.00 0.01 0.01 96 1009.0
20260507060355 53 169 0.0 0.0 0.00 0.01 0.01 96 1009.3
20260507055852 53 169 0.0 0.0 0.00 0.01 0.01 96 1009.3
20260507055352 53 169 0.0 0.9 0.00 0.01 0.01 96 1009.3
20260507054850 53 175 0.0 0.9 0.00 0.01 0.01 96 1009.2
20260507054345 53 142 0.0 0.9 0.00 0.01 0.01 96 1008.7
20260507053843 53 108 0.0 1.7 0.00 0.01 0.01 96 1008.7
20260507053341 53 145 0.0 0.0 0.00 0.01 0.01 97 1008.4
20260507052840 53 145 0.0 0.0 0.00 0.01 0.01 97 1008.8
20260507052336 53 165 0.0 0.9 0.00 0.01 0.01 97 1009.0
20260507051833 53 176 0.9 0.9 0.00 0.01 0.01 97 1008.7
20260507051331 53 162 0.0 0.9 0.00 0.01 0.01 97 1008.5
20260507050827 53 170 0.9 1.7 0.00 0.01 0.01 97 1008.5
20260507050324 53 125 0.0 0.9 0.00 0.01 0.01 97 1008.4
20260507045821 54 167 0.0 0.9 0.00 0.01 0.01 97 1008.9
20260507045317 54 134 0.0 0.0 0.00 0.01 0.01 98 1008.8
20260507044815 54 171 0.9 0.9 0.00 0.01 0.01 98 1008.7
20260507044311 54 177 0.0 0.9 0.00 0.01 0.01 98 1008.5
20260507043807 54 129 0.0 1.7 0.00 0.01 0.01 98 1008.2
20260507043304 54 182 0.9 1.7 0.00 0.01 0.01 98 1008.2
20260507042800 54 202 1.7 1.7 0.07 0.01 0.01 98 1008.1
20260507042255 54 132 0.0 0.9 0.07 0.01 0.01 98 1007.9
20260507041753 54 173 0.9 2.6 0.00 0.00 0.00 98 1008.3
20260507041249 55 198 0.9 2.6 0.00 0.00 0.00 98 1008.1
20260507040746 55 154 0.9 1.7 0.00 0.00 0.00 98 1008.1
20260507040242 55 213 1.7 1.7 0.00 0.00 0.00 98 1008.0
20260507035739 55 181 0.0 0.9 0.00 0.23 0.23 99 1008.2
20260507035234 55 196 1.7 1.7 0.00 0.23 0.23 99 1008.4
20260507034732 55 193 0.0 0.0 0.00 0.23 0.23 99 1008.2
20260507034228 55 193 0.0 0.0 0.00 0.23 0.23 99 1008.5
20260507033727 55 193 0.0 0.9 0.00 0.23 0.23 99 1008.3
20260507033224 55 193 0.0 0.9 0.05 0.23 0.23 98 1008.2
20260507032722 55 203 1.7 1.7 0.05 0.23 0.23 98 1008.0
20260507032217 54 151 0.0 0.0 0.00 0.22 0.22 98 1008.2
20260507031714 54 134 0.0 0.9 0.00 0.22 0.22 98 1007.9
20260507031211 54 233 1.7 1.7 0.00 0.22 0.22 98 1007.7
20260507030708 54 169 0.0 1.7 0.00 0.22 0.22 98 1007.7